STARLINK-35684, 66458

Orbit data source: Space-Track

STARLINK-35684, 66458 is a payload satellite owned by SpaceX/Seattle (US) in LEO that was launched on Sat, 15 Nov 2025 UTC via an FALCON 9 launch vehicle from the Air Force Eastern Test Range (AFETR). Payload-class satellites include a variety of spacecraft equipped with specific instruments for various scientific and technological missions. These include communications satellites like Starlink; space stations such as the ISS; scientific satellites like the Hubble; Earth observation satellites from companies like Planet Labs, Umbra, and HawkEye 360; GPS; miniature CubeSats for education and research; and military/defense satellites.

Loading next visibility...
Identifier
66458, 2025-262C
Orbit
LEO
Country
Flag of USUS
Related business
Manufacturer
SpaceX/Seattle
Mission
Operational Commercial Communications
Bus & Motor
STARLINK V2MO, Unknown motor
Mass
575 kg wet, ~530 kg dry
Launch date (UTC)
2025-11-15 (7 months ago)
Launch vehicle
FALCON 9
Launch site
Air Force Eastern Test Range (AFETR)
Object type
Payload
Rocket body
Debris
Shape & HBR
Box + 2 Pan, 17.7 m
Radar Cross Section
36.964 m², Large (>1 m²)

Expand to show TLE details & history
Last TLE update: 17 hours ago

TLE from 17 hours ago
0 STARLINK-35684
1 66458U 25262C   26171.14993137  .00011251  00000-0  41744-3 0  9993
2 66458  43.0022  77.7668 0002308 235.5870 124.4764 15.27603080 34575
Epoch: 2026-06-20T03:35Z
TLE epoch observation values (Epoch: 2026-06-20T03:35:54.070Z)
Latitude
0.00001°
Longitude
115.42283°
Altitude
483.652 km
Speed
7.625 km/s
True Right ascension
05h 11m 04s
True Declination
0° 00' 00"
Sunlit
Object was in daylight at epoch
Visualization orbit readout
Latitude
Unknown
Longitude
Unknown
Altitude
Unknown
Speed
Unknown
Apparent Right ascension
Unknown
Apparent Declination
Unknown
Sunlit
N/A
Visualization observer readout
Local Sidereal Time
07:16:26
Azimuth
Unknown
Elevation
Unknown
Doppler factor
Unknown
Orbital elements
Apogee altitude
486.509 km
Perigee altitude
483.341 km
Semi-major axis
6,863.062 km
Eccentricity
0.00023
Inclination
43.0022°
RAAN
77.7668°
Arg. of periapsis
235.587°
True anomaly
124.4982°
Mean anomaly
124.4764°
Eccentric anomaly
124.4873°
Mean motion
3.81739 °/min
Orbital period
94.31 mins
BSTAR
0.00041744
Loading maneuver chart data...
Computing Atmospheric mass density...
Loading historical data...
Loading historical data...
Loading historical data...
Loading historical data...
Loading historical data...
Loading historical data...
Loading historical data...

Documentation

Showing up to 5 results
|